Location: Fiennes
(50.8274°N, 1.8253°E)
Time: 23:26:19
(UTC+00:00)

NOSS 3-4 (C) - Pass Details

Date: 15 May 2026
Orbit: 773 x 1438 km, 63.4° (Epoch: 26 December)

Event Time Altitude Azimuth Distance (km) Brightness Sun altitude
Rises 20:39:35 0° 315° (NW) 3,626 9.0 -8.7°
Reaches altitude 10° 20:41:58 10° 317° (NW) 2,761 7.6 -9.0°
Maximum altitude 20:48:33 79° 44° (NE) 1,143 3.9 -9.7°
Enters shadow 20:55:45 12° 131° (SE) 3,034 5.4 -10.5°
